Regional Weather Roundup
Issued by NWS

Home | Current Version | Previous Version | Graphics & Text | Print | Product List | Glossary On
Versions: 1 2 3 4 5 6 7 8 9 10 11 12 13 14 15 16 17 18 19 20 21 22 23 24 25 26 27 28 29 30 31 32 33 34 35 36 37 38 39 40 41 42 43 44 45 46 47 48 49 50
000
ASUS45 KSLC 051810
RWRUT

UTAH REGIONAL WEATHER ROUNDUP
NATIONAL WEATHER SERVICE SALT LAKE CITY UT
1100 AM MST MON DEC 05 2016

UTZ001>011-023>025-051900-

NORTHERN UTAH

CITY           SKY/WX    TMP DP  RH WIND       PRES   REMARKS
BRIGHAM CITY     N/A     29   6  38 N5        30.08S WCI  24
HILL AFB       SUNNY     26   7  44 N10       30.05R WCI  17
LOGAN          MOSUNNY  N/A N/A N/A VRB5      30.06R
OGDEN          MOSUNNY   29   9  43 NW13      30.05  WCI  19
SALT LAKE CITY PTSUNNY   32  11  41 N17       30.06S WCI  21
TOOELE VALLEY  CLOUDY    32  14  47 N10       30.08S WCI  24
WENDOVER       CLOUDY    32   3  29 SE10      30.10R WCI  24
HEBER CITY     CLOUDY    28  -6  22 N21G30    29.94S WCI  15
WEST JORDAN    PTSUNNY   29  15  57 NW6G20    30.05S WCI  22

$$

UTZ011>015-024>027-051900-

CENTRAL/NORTHEAST UTAH

CITY           SKY/WX    TMP DP  RH WIND       PRES   REMARKS
PROVO AIRPORT  CLOUDY    31  13  47 NW15      30.06R WCI  20
MOAB/CANYONLAN MOSUNNY   39  18  42 W12       29.89R WCI  32
DELTA          CLOUDY    32   3  29 N13       30.06S WCI  22
PRICE          PTSUNNY   31  11  43 NW17G28   29.90  WCI  19
RICHFIELD      CLOUDY    37  21  52 NE14      30.03R WCI  29
ROOSEVELT      SUNNY     37   5  25 W28G38    29.91R WCI  25
VERNAL         PTSUNNY   36  19  50 CALM      29.86

$$

UTZ013>016-019>022-027-051900-

SOUTHERN UTAH

CITY           SKY/WX    TMP DP  RH WIND       PRES   REMARKS
BRYCE CANYON   SUNNY     41  13  31 W18G26    29.92
CEDAR CITY     SUNNY     42  18  37 N10       29.97
MILFORD        SUNNY     37  14  38 N25G32    30.02R WCI  25
ST GEORGE      MOCLDY    39  18  41 CALM      29.99F
HANKSVILLE     MOSUNNY   34  19  55 CALM      29.93S
KANAB          SUNNY     43  18  36 CALM      29.99
BLANDING       SUNNY     38  19  45 SW7       29.97F WCI  33

$$

REGIONAL REPORTS     COLORADO/ARIZONA

CITY           SKY/WX    TMP DP  RH WIND       PRES   REMARKS
CRAIG, CO      CLOUDY    27  10  49 NW20G26   29.85S WCI  13
GRAND JUNCTION CLOUDY    36  23  59 CALM      29.87R
RIFLE, CO      CLOUDY    36  19  50 NW3       29.83F
MONTROSE, CO   CLOUDY    38  20  48 N6        29.86F WCI  33
CORTEZ, CO     SUNNY     44  20  38 CALM      29.90F
COLORADO CITY    N/A     50  14  23 NW8       29.98S
PAGE, AZ       SUNNY     43  16  33 N5        29.91F
GRAND CANYON   SUNNY     44  14  29 W12       29.97S
KINGMAN, AZ    SUNNY     55   4  12 MISG      29.96
FLAGSTAFF, AZ  SUNNY     43  13  29 SW10      29.99F

$$

REGIONAL REPORTS    NEVADA/IDAHO/WYOMING

CITY           SKY/WX    TMP DP  RH WIND       PRES   REMARKS
LAS VEGAS, NV  PTSUNNY   53  15  22 NE7       29.96R
ELY, NY        MOSUNNY   34  20  56 NE6       30.01  WCI  29
ELKO, NV       PTSUNNY   29  10  45 W5        30.06F WCI  24
POCATELLO, ID  MOSUNNY   21  16  81 SW21      30.06  WCI   5
BURLEY, ID     SUNNY     24  14  65 W20G25    30.09  WCI  10
FORT BRIDGER,  CLEAR     19   1  45 W12G18    29.95S WCI   7
EVANSTON, WY   SUNNY     18  -3  39 W13       29.92  WCI   5
ROCK SPRINGS,  SUNNY     18   3  52 W23G29    29.88  WCI   0

$$



USA.gov is the U.S. government's official web portal to all federal, state and local government web resources and services.